Home   Weather   Fort St. John   Past weeks

Flag for Canada Past Weather in Fort St. John, British Columbia, Canada — Yesterday and Last 2 Weeks

Now
57 °F

Broken clouds.


Feels Like: 54 °F
Forecast: 52 / 65 °F
Wind: 14 mph from Southwest

Location: Fort St John

Current Time: Sep 25, 2016 at 5:22:59 PM

Latest Report: Sep 25, 2016 at 5:00 PM


Visibility: 15 mi

Pressure: 30.11 "Hg (27.74 "Hg at 689m altitude)

Humidity: 59%

Dew Point: 43 °F

Location of Fort St. JohnLocation

Past Weather in Fort St. John — Graph

°F

Fort St. John Temperature Yesterday

Maximum temperature yesterday: 59 °F (at 1:00 PM)
Minimum temperature yesterday: 41 °F (at 6:00 AM)
Average temperature yesterday: 50 °F

High & Low Weather Summary for the Past Weeks

 TemperatureHumidityPressure
High73 °F (Sep 13, 1:00 PM)100% (Sep 12, 8:00 AM)30.42 "Hg (Sep 12, 8:00 AM)
Low30 °F (Sep 12, 6:48 AM)28% (Sep 22, 5:00 PM)29.45 "Hg (Sep 17, 4:00 PM)
Average51 °F66%29.97 "Hg
* Reported Sep 10 4:00 PM — Sep 25 4:00 PM, Fort St. John, Weather by CustomWeather, © 2016

Note: Actual official high and low records may vary slightly from our data, if they occured in-between our weather recording intervals... More about our weather records

Advertising

Fort St. John Weather History for the Previous 24 Hours

Scroll right to see more
 ConditionsComfort  
Time TempWeatherWind HumidityBarometerVisibility
4:00 PM
Sun, Sep 25
57 °FBroken clouds.10 mph59%30.12 "Hg15 mi
3:00 PM57 °FBroken clouds.15 mph55%30.12 "Hg15 mi
2:00 PM55 °FPartly sunny.7 mph55%30.14 "Hg15 mi
1:00 PM54 °FPartly sunny.9 mph58%30.15 "Hg15 mi
12:00 PM54 °FPartly sunny.9 mph58%30.15 "Hg15 mi
11:00 AM52 °FBroken clouds.8 mph62%30.17 "Hg15 mi
10:00 AM48 °FBroken clouds.6 mph76%30.17 "Hg15 mi
9:00 AM46 °FLight rain. Partly sunny.6 mph76%30.19 "Hg15 mi
8:00 AM46 °FPartly sunny.7 mph71%30.17 "Hg15 mi
7:00 AM43 °FPassing clouds.6 mph76%30.17 "Hg15 mi
6:00 AM43 °FMostly cloudy.5 mph76%30.15 "Hg15 mi
5:00 AM43 °FOvercast.7 mph76%30.16 "Hg15 mi
4:00 AM45 °FMostly cloudy.7 mph71%30.16 "Hg15 mi
3:00 AM45 °FPassing clouds.7 mph66%30.17 "Hg15 mi
2:00 AM45 °FPassing clouds.7 mph66%30.19 "Hg15 mi
1:00 AM46 °FPassing clouds.9 mph57%30.19 "Hg15 mi
12:00 AM45 °FPassing clouds.9 mph61%30.21 "Hg15 mi
11:00 PM
Sat, Sep 24
45 °FPassing clouds.8 mph57%30.21 "Hg15 mi
10:00 PM45 °FPassing clouds.6 mph57%30.20 "Hg15 mi
9:00 PM45 °FPassing clouds.6 mph53%30.20 "Hg15 mi
8:00 PM50 °FPassing clouds.3 mph43%30.19 "Hg15 mi
7:00 PM52 °FPassing clouds.12 mph41%30.17 "Hg15 mi
6:00 PM55 °FPassing clouds.17 mph36%30.15 "Hg15 mi
5:00 PM57 °FPassing clouds.16 mph33%30.13 "Hg15 mi
Weather by CustomWeather, © 2016

See weather overviewHow to use our weather pages